Regional Weather Roundup
Issued by NWS Albany, NY

Home | Current Version | Previous Version | Text Only | Print | Product List | Glossary On
Versions: 1 2 3 4 5 6 7 8 9 10 11 12 13 14 15 16 17 18 19 20 21 22 23 24 25 26 27
000
ASUS41 KALY 221910
RWRALY

NEW YORK STATE HOURLY WEATHER ROUNDUP
NATIONAL WEATHER SERVICE ALBANY NY
300 PM EDT WED OCT 22 2014

NOTE: "FAIR" INDICATES FEW OR NO CLOUDS BELOW 12,000 FEET WITH NO
SIGNIFICANT WEATHER AND/OR NO OBSTRUCTIONS TO VISIBILITY.

NYZ032-033-038>043-046>054-057>066-NYZ062>081-222000-
EAST


CITY           SKY/WX    TMP DP  RH WIND       PRES   REMARKS
ALBANY         CLOUDY    53  45  74 N16G26    30.03F
GLENS FALLS    LGT RAIN  52  45  77 N14       30.07F
POUGHKEEPSIE   CLOUDY    53  47  79 N15G21    29.94F HAZE
NEWBURGH       CLOUDY    52  48  87 NE17G29   29.94F
MONTGOMERY     CLOUDY    54  46  74 N20G29    29.93F
WHITE PLAINS   CLOUDY    55  47  74 N20G26    29.85F
ISLIP          LGT RAIN  55  50  83 N22G37    29.79F
NEW YORK CITY  CLOUDY    57  48  72 N16G29    29.85F
CENTRAL PARK   CLOUDY    56  49  77 N15G25    29.88F
$$

NYZ005>009-017-018-044>046-055-056-222000-
CENTRAL


CITY           SKY/WX    TMP DP  RH WIND       PRES   REMARKS
FULTON         MOSUNNY   53  42  66 N12       30.13F
SYRACUSE       CLOUDY    55  45  68 NW10      30.11F
ROME           CLOUDY    54  45  71 N12       30.10F
ELMIRA         CLOUDY    49  45  86 N14G24    30.10F
BINGHAMTON     CLOUDY    48  45  89 N12       30.04F
MONTICELLO     CLOUDY    52  45  76 N12       29.97F
$$

NYZ026>034-041>043-222000-
NORTH


CITY           SKY/WX    TMP DP  RH WIND       PRES   REMARKS
WATERTOWN      PTSUNNY   52  39  61 N20G26    30.17F
FORT DRUM      NOT AVBL
MASSENA        CLOUDY    52  39  61 NE15      30.23F
SARANAC LAKE   CLOUDY    42  40  92 N12       30.14F
PLATTSBURGH    CLOUDY    51  42  71 N17       30.18F
$$

NYZ001>004-010>016-019>021-222000-
WEST


CITY           SKY/WX    TMP DP  RH WIND       PRES   REMARKS
NIAGARA FALLS  PTSUNNY   47  39  74 N10       30.22S
BUFFALO        PTSUNNY   46  39  76 N8        30.22R
DUNKIRK        CLOUDY    48  42  80 N8        30.21F
JAMESTOWN      CLOUDY    43  39  87 N10       30.19S
WELLSVILLE     FOG       41  40  96 N7G21     30.14S VSB 1/4
ROCHESTER      CLOUDY    49  41  74 N10       30.19F
PENN YAN       CLOUDY    47  43  86 VRB6      30.14F
$$

             KEY
       WCI = WIND CHILL INDEX
       VSB = VISIBILITY
       HX  = HEAT INDEX
$$



USA.gov is the U.S. government's official web portal to all federal, state and local government web resources and services.